Вернуться в каталог

STARLINK-5512

АктивенСвязьVLEO
NORAD 57256·PAYLOAD·🇺🇸 United States

Запущен Jul 7, 2023 с Vandenberg Space Force Base

Loading…

Ближайшие Пролёты (ближайшие 24 часа)

TLE

СвежийSource: CelesTrak SupGP

Эпоха: Sep 15, 2026, 01:54 UTC

1 57256C 23094AQ  26258.07965278 -.00044522  00000+0 -16127-2 0  2585
2 57256  43.0029  30.3398 0001426 265.3859 125.9700 15.27598193    17

Отслеживайте STARLINK-5512 в реальном времени с AllMySat

Download on the App Store